Location: Budapest
(47.4979°N, 19.0402°E)
Time: 10:05:03
(UTC+02:00)

ISS - Pass Details

Date: 04 October 2020
Orbit: 418 x 420 km, 51.6° (Epoch: 21 October)

Event Time Altitude Azimuth Distance (km) Brightness Sun altitude
Rises 18:44:33 0° 294° (WNW) 2,369 1.5 -5.5°
Reaches altitude 10° 18:46:39 10° 295° (WNW) 1,503 0.3 -5.9°
Maximum altitude 18:50:02 81° 21° (NNE) 429 -3.7 -6.5°
Drops below altitude 10° 18:53:24 10° 111° (ESE) 1,498 -1.5 -7.0°
Enters shadow 18:53:47 - 112° (ESE) 1,656 -1.3 -7.1°
